Theta_e
299 300 300 299 298 297 298 297 295 294 295 296 297 295 294 296 294 291 296 298 299 300 303 309 314 315 316 317 320 323 325 326 326 326 327 327 328 329 329 330 331 332 332 334 335 338 340 341 341 341 342 342 343 344 345 345 345 344 345 344 342 342 343 343 343 344 345 345 346 347 348 346 345 345 346 347 349 349 349 349 350 349 349 348 351 353 353
299 299 299 300 299 299 300 300 297 295 294 295 296 298 296 298 296 296 298 298 301 303 304 307 314 317 318 318 322 324 324 325 326 326 326 327 328 329 330 330 331 332 333 335 337 339 340 341 341 341 341 341 342 343 344 344 343 344 344 343 342 342 341 342 344 345 345 346 345 345 346 345 345 346 347 348 348 347 348 349 351 351 350 350 351 351 351
297 299 301 300 300 299 298 299 296 295 293 302 306 309 308 305 302 303 300 299 299 303 306 310 316 317 320 321 322 323 324 326 326 326 326 327 328 329 331 331 331 332 334 336 338 339 340 340 340 341 341 341 342 343 343 343 343 344 344 342 342 342 341 342 344 344 345 345 344 344 342 342 342 343 344 344 343 344 345 346 348 350 352 349 349 351 351
294 298 299 300 300 299 296 294 300 302 301 305 308 306 308 305 301 302 301 299 298 302 309 313 316 318 319 319 320 321 323 326 327 326 326 327 328 329 331 332 332 333 334 335 337 339 340 340 340 340 340 340 341 342 343 343 343 344 343 342 342 342 342 342 343 343 343 342 341 339 339 339 339 341 341 340 341 341 342 344 346 345 345 346 346 348 350
291 296 300 299 298 298 295 295 303 303 303 307 308 309 310 310 307 300 300 297 302 307 312 312 312 317 318 318 320 321 322 325 327 326 327 328 329 330 331 332 333 333 334 336 338 339 340 340 340 340 340 340 340 341 342 342 343 343 342 342 341 341 341 342 342 342 341 340 338 338 338 338 339 339 339 338 337 337 339 343 342 342 342 342 343 344 347
290 296 299 298 294 287 288 299 307 307 306 309 305 306 308 310 310 307 306 307 310 311 312 312 311 314 318 320 322 325 325 325 326 327 328 329 330 331 332 333 334 334 336 337 338 339 340 340 341 340 341 341 341 342 342 341 341 340 340 339 339 340 340 340 340 339 339 338 337 336 336 336 336 336 336 336 334 337 339 338 337 338 339 339 341 343 344
290 295 296 294 287 289 297 304 312 312 311 310 309 309 310 312 312 312 310 310 310 311 313 314 314 315 317 322 323 323 326 327 327 327 328 329 330 331 332 333 334 335 336 337 337 337 338 339 338 338 338 341 338 338 338 338 338 338 337 337 337 337 338 338 337 337 336 336 335 335 335 335 336 334 333 331 333 336 336 336 334 335 337 339 342 343 342
293 294 292 286 287 296 302 303 311 316 310 310 308 307 311 312 313 312 310 311 312 312 313 314 314 314 318 322 324 324 325 328 327 327 328 329 331 331 332 333 334 335 336 337 337 337 339 338 336 337 337 337 338 337 337 337 336 337 336 336 335 336 336 336 335 335 335 335 335 334 333 334 334 332 331 332 334 339 335 332 335 337 338 340 340 341 341
288 288 290 292 299 301 301 304 306 308 305 307 305 301 307 312 314 314 312 312 313 313 314 315 316 319 320 319 319 322 326 326 328 328 328 330 332 333 333 335 335 337 338 338 338 338 337 336 335 335 335 336 336 335 334 334 335 334 335 334 334 336 335 335 335 334 335 334 333 332 332 332 332 332 331 330 331 336 330 331 334 335 336 338 339 340 340
293 289 290 290 293 291 296 305 310 314 313 312 310 307 303 312 315 316 314 312 313 314 314 315 316 321 316 313 315 319 322 326 327 328 328 330 332 334 334 335 336 337 338 338 339 338 336 335 335 335 335 336 335 334 333 332 332 332 333 333 334 335 333 334 334 333 333 334 333 332 331 331 330 329 329 329 332 336 331 330 332 334 335 334 334 338 339
293 291 288 287 288 293 301 306 311 314 314 313 312 305 299 311 314 316 315 313 313 315 315 315 316 313 310 310 314 320 322 323 327 328 329 331 333 334 335 336 336 337 338 338 339 338 336 334 334 335 335 335 334 333 333 331 332 331 331 332 333 333 333 333 333 333 333 333 332 331 330 328 328 328 328 331 335 333 331 330 331 333 337 334 332 332 333
292 290 289 288 291 294 305 309 311 314 315 314 307 296 296 310 314 316 316 314 313 314 317 319 318 314 311 313 318 323 324 325 326 329 330 331 332 334 335 337 338 338 339 339 337 336 335 335 335 334 334 334 335 333 332 331 331 331 331 332 333 333 332 332 332 332 332 333 331 330 329 329 327 327 331 332 330 331 330 329 329 329 332 332 330 331 330
293 297 289 290 293 304 309 310 312 314 316 310 296 289 300 312 314 316 316 315 315 314 316 317 315 316 317 319 323 325 327 328 327 328 333 334 334 334 335 336 340 338 338 338 337 336 336 335 335 334 334 333 334 335 332 330 331 332 332 332 331 331 331 331 331 331 331 331 330 328 328 326 328 331 330 327 327 326 327 325 325 325 327 330 330 330 331
293 291 290 290 293 300 309 313 313 315 309 296 293 307 316 315 314 315 316 316 317 316 315 315 317 319 322 326 327 328 328 326 328 329 331 334 335 337 338 339 338 338 338 337 337 337 337 336 336 334 333 333 334 333 331 330 332 331 332 331 331 330 330 330 330 330 329 329 329 327 327 329 327 326 325 324 325 323 323 325 325 324 327 330 329 330 331
294 290 291 288 286 298 311 312 310 313 303 303 311 316 317 320 316 314 315 316 317 318 317 317 318 320 322 325 326 327 329 327 326 329 332 333 334 336 337 338 339 339 337 337 337 337 337 336 336 334 333 334 333 334 330 331 331 331 331 331 330 330 330 329 330 329 329 332 331 329 329 327 325 323 323 326 328 328 327 327 327 327 326 328 330 329 329
292 288 288 289 301 306 312 312 305 311 313 317 318 317 314 317 316 315 314 315 317 319 319 318 319 320 321 323 325 326 328 328 327 328 329 330 333 337 339 340 339 340 338 338 337 337 337 337 336 335 334 334 334 333 330 330 331 332 331 330 330 330 332 329 328 328 330 328 325 327 327 324 323 322 321 322 325 328 330 329 327 327 326 328 328 328 327
300 296 298 306 307 309 313 314 314 317 320 321 321 320 319 316 318 318 316 315 317 320 321 320 320 320 322 323 325 325 326 327 327 326 326 328 329 334 338 340 340 340 339 338 337 337 337 337 336 335 335 335 335 333 330 332 332 331 330 330 330 330 328 328 328 325 324 323 323 323 323 323 323 321 320 319 322 321 326 326 325 324 325 327 327 327 327
305 307 308 312 312 312 313 316 318 317 320 323 322 320 317 318 318 318 318 319 318 318 321 321 320 320 321 320 323 325 326 327 327 328 328 328 329 331 334 339 340 341 340 339 338 336 336 337 336 336 335 336 336 334 331 334 332 331 330 330 331 329 327 327 326 325 322 322 321 320 319 319 319 317 318 319 320 318 322 324 325 326 327 327 326 326 325
296 292 301 307 308 309 311 312 315 318 321 322 322 322 320 320 320 319 320 321 320 320 319 320 321 322 322 320 321 324 325 326 326 327 327 328 328 329 331 337 340 340 339 338 337 336 335 336 335 335 335 336 337 334 333 333 332 331 331 331 331 328 327 326 325 325 324 320 318 316 315 315 315 316 316 314 319 321 320 319 321 323 324 327 327 326 326
299 297 304 307 309 309 310 311 312 314 318 320 321 323 323 322 321 321 320 320 320 322 320 320 320 321 323 322 323 323 323 324 325 326 327 327 329 330 330 332 338 339 339 338 337 337 336 335 336 335 335 336 336 333 334 333 331 331 332 332 329 326 326 326 326 325 324 327 319 313 312 312 312 312 313 313 313 316 315 314 316 319 322 325 326 327 326
301 303 303 303 307 306 308 309 311 314 316 317 319 320 321 321 320 320 320 322 320 320 319 321 320 320 321 323 323 324 324 324 324 326 326 327 329 330 330 332 335 338 338 338 338 337 337 336 336 335 335 336 335 334 334 333 332 331 331 334 330 326 326 326 325 326 326 323 316 312 309 309 308 309 310 311 312 313 310 310 310 313 315 315 322 321 326
294 297 301 304 300 300 305 308 310 312 313 317 317 319 319 320 320 321 320 320 321 322 321 321 321 320 320 321 323 323 324 324 325 325 325 325 327 329 331 331 332 334 337 338 338 337 337 337 336 335 335 335 334 335 334 333 332 332 332 331 327 326 326 326 326 326 322 317 315 314 312 311 310 311 309 304 306 311 312 315 308 303 305 316 317 317 319
296 301 304 305 305 305 307 309 311 312 314 315 314 314 315 317 319 320 320 320 320 320 321 322 321 320 321 322 322 322 323 324 325 325 325 325 325 327 329 330 331 332 334 336 337 337 337 336 336 336 335 335 334 334 334 333 333 333 332 330 328 326 327 326 326 324 320 316 314 312 311 311 313 314 311 309 297 298 305 308 302 296 293 296 298 303 315
305 307 307 307 306 305 308 310 311 312 314 313 314 315 315 316 317 319 320 320 319 319 320 322 323 322 322 322 322 321 322 324 324 324 325 325 325 325 328 329 330 331 332 334 334 335 336 335 336 336 335 335 334 334 334 333 333 333 332 330 327 326 326 326 328 325 318 317 314 312 310 311 313 313 312 312 313 303 299 301 300 297 295 296 296 300 305
304 307 308 308 308 309 310 311 312 313 315 317 314 314 314 314 316 317 318 320 321 320 320 320 322 323 323 322 322 322 322 323 325 325 327 327 329 328 327 328 329 330 331 333 334 334 335 335 335 335 335 335 335 334 334 333 333 332 332 330 327 326 326 327 327 324 319 318 316 314 312 312 312 313 312 314 313 313 313 303 300 299 298 297 296 296 298
309 308 309 309 309 309 310 310 310 311 312 313 313 314 316 319 319 321 320 319 320 322 321 321 322 324 325 323 324 325 324 323 325 327 326 327 327 326 326 327 329 331 332 332 333 334 334 333 334 334 334 335 335 335 334 333 333 333 331 330 328 326 326 326 323 321 319 318 316 314 314 313 313 313 315 314 313 313 314 316 316 309 301 298 297 299 298
308 308 308 308 307 307 308 309 309 312 313 314 313 313 314 314 318 317 315 319 321 322 322 322 323 324 326 326 326 326 324 325 325 325 325 325 326 327 327 327 328 329 331 332 332 333 335 334 334 334 334 336 336 336 334 334 333 332 331 328 326 329 330 327 321 320 318 317 315 314 313 314 316 316 316 316 316 315 315 316 316 317 317 317 308 301 309
309 309 308 307 306 308 311 313 313 313 313 313 313 314 314 314 314 315 316 315 314 318 322 323 323 323 323 325 324 324 324 324 324 326 325 326 327 327 327 326 327 327 329 331 332 333 335 334 334 334 335 335 334 334 334 333 332 331 329 326 326 328 328 326 322 319 317 316 315 315 315 315 316 317 318 319 318 317 316 317 318 318 318 316 316 314 305
309 310 311 311 312 313 313 313 313 313 313 314 315 313 313 313 314 314 315 316 317 317 318 321 324 326 325 324 323 323 324 325 325 325 326 326 326 326 327 327 327 328 328 329 331 332 333 333 333 333 333 334 334 333 333 332 332 332 329 326 326 327 326 323 320 318 317 316 316 316 317 317 318 319 319 319 320 319 318 318 318 318 316 316 316 318 317
311 313 313 313 313 313 312 311 312 313 313 313 313 313 313 312 313 313 314 315 316 316 319 321 321 322 324 324 324 324 324 324 325 326 325 325 326 326 326 326 327 327 327 327 328 330 331 332 332 332 332 333 334 333 333 332 331 331 329 327 327 326 325 322 320 319 317 315 316 319 320 318 318 319 320 319 321 320 318 318 318 318 317 315 319 317 318
312 312 312 312 312 312 311 311 312 312 312 312 312 312 313 313 312 312 313 314 314 315 316 317 320 321 323 323 324 323 324 323 323 323 324 324 325 325 326 326 326 327 327 328 329 330 330 331 332 332 333 335 334 334 333 332 331 331 329 327 327 327 326 323 321 318 317 317 318 319 319 318 317 319 319 320 321 319 318 318 319 319 318 316 318 318 318
312 312 312 312 312 311 311 311 310 311 311 312 312 312 312 313 313 313 314 314 314 315 315 316 317 319 322 324 323 323 321 321 322 322 323 323 324 325 326 326 327 329 329 329 330 331 330 330 331 332 334 334 334 334 333 332 331 330 328 330 327 326 325 324 321 320 320 320 320 319 320 318 317 319 321 321 321 319 318 317 318 318 317 317 318 319 320
310 310 310 311 312 312 312 313 312 312 312 312 312 313 314 314 314 315 315 316 316 316 316 316 318 321 322 321 320 321 321 321 321 321 321 322 324 325 325 326 327 328 329 330 331 331 331 331 331 333 334 334 334 334 334 332 331 330 329 329 327 327 327 323 322 320 321 320 320 319 320 320 319 319 320 321 321 319 318 318 318 319 318 318 318 319 318
311 310 311 313 312 311 311 312 314 314 314 314 314 314 314 315 315 315 315 316 316 317 317 319 320 321 321 320 321 321 320 319 321 322 322 323 323 324 324 326 328 328 329 331 331 332 332 332 333 332 334 334 334 334 334 333 332 331 330 329 328 326 325 323 323 322 322 321 320 321 321 321 319 318 320 323 322 319 318 319 319 320 319 319 319 319 313
315 314 315 315 316 316 316 315 315 315 315 315 315 315 315 315 315 315 318 317 316 317 319 320 320 320 321 321 321 321 320 320 321 322 322 323 323 323 323 325 326 328 329 331 331 332 333 333 333 333 334 334 334 334 334 333 332 331 330 329 328 327 326 325 323 323 323 322 321 321 320 320 319 321 321 322 322 321 321 320 319 320 319 319 319 320 319
316 315 315 315 316 317 317 317 317 317 317 316 316 316 316 316 316 316 316 317 318 319 319 321 321 321 321 320 320 320 320 320 321 322 322 323 323 323 323 324 326 327 328 329 332 333 334 333 335 336 333 334 334 334 334 333 332 331 330 330 329 328 328 326 325 325 325 324 322 321 321 322 322 322 322 322 322 321 320 321 319 320 320 320 320 319 320
317 316 315 316 316 317 316 316 316 316 316 316 316 316 316 316 317 318 319 319 319 319 319 320 320 320 321 322 321 320 320 321 321 322 322 323 323 323 324 324 326 326 327 326 330 334 334 333 335 337 335 333 334 334 334 337 332 331 331 329 328 328 327 326 325 325 325 326 324 324 323 324 323 323 324 322 320 320 319 319 321 319 319 320 320 320 319
317 317 316 317 317 317 316 316 317 317 317 317 318 319 320 319 319 319 319 319 319 320 321 320 321 322 322 320 320 321 321 321 322 322 323 324 324 324 325 324 324 326 325 326 331 333 333 334 335 336 334 333 333 333 335 338 336 331 329 328 328 327 327 326 325 325 325 325 326 325 325 325 324 323 323 323 321 320 319 319 319 319 319 319 320 320 320
316 317 317 318 318 318 317 317 317 317 317 317 317 317 319 321 322 321 319 319 319 322 322 321 320 321 321 321 321 321 320 321 321 322 322 324 325 325 325 326 327 327 328 330 332 332 333 334 335 335 334 333 334 333 336 338 336 330 329 328 328 327 327 326 325 325 325 325 325 325 325 326 325 324 323 322 321 320 321 319 318 320 319 319 319 319 319
316 315 315 316 316 317 316 316 316 316 316 317 316 316 318 319 319 320 320 320 320 323 323 321 321 321 321 321 320 321 322 323 322 321 322 322 323 324 325 326 328 330 331 333 333 333 333 334 334 334 333 333 333 333 335 337 335 330 328 328 328 327 327 326 326 325 325 325 325 326 325 325 325 324 323 322 321 319 319 320 320 319 319 319 319 319 319
316 316 315 315 315 316 315 315 315 316 316 316 316 317 319 319 319 318 319 319 320 320 320 321 322 323 322 321 321 322 323 323 322 321 322 323 323 323 322 323 328 331 332 333 333 333 334 334 334 334 333 332 332 334 334 336 333 328 328 327 327 327 326 326 325 325 325 324 324 324 324 324 324 325 323 322 321 320 319 319 319 319 320 319 319 319 318
316 316 315 314 314 314 316 315 315 315 316 316 317 319 320 321 322 323 323 321 319 319 319 320 324 324 324 324 323 323 321 321 322 323 323 323 323 323 322 324 330 330 333 334 335 335 333 334 334 334 332 331 331 334 335 335 331 328 327 327 326 326 326 326 326 325 326 325 325 325 324 324 324 324 324 323 322 321 320 319 319 319 320 320 320 320 320
316 315 315 314 314 315 316 316 315 314 315 316 317 317 319 320 320 320 319 319 320 319 320 320 321 325 325 325 324 322 321 319 320 321 322 322 323 325 325 327 329 330 334 333 332 332 333 333 334 333 334 332 332 333 334 334 329 328 327 326 326 326 326 326 326 325 325 325 324 324 324 323 323 323 323 323 323 322 321 321 320 320 320 321 321 321 321
316 315 316 315 315 317 317 316 315 315 314 315 316 316 317 317 318 319 320 320 320 321 321 322 322 322 323 322 322 322 322 322 322 322 321 322 323 324 326 328 329 331 333 331 330 331 332 332 333 334 336 335 334 333 334 332 329 327 327 326 325 325 325 325 325 324 324 323 323 323 323 323 323 323 322 322 322 322 322 322 322 322 322 322 323 322 322
316 316 316 316 318 319 317 315 315 315 316 316 316 317 317 316 318 318 319 319 319 322 322 321 320 321 322 322 323 324 324 324 325 324 322 321 320 322 324 329 331 331 331 333 329 329 330 331 333 335 335 333 330 333 333 330 328 327 327 326 325 325 325 324 324 324 324 323 323 323 323 323 323 322 322 322 322 321 321 321 322 322 322 322 322 321 321
316 316 317 319 317 318 318 317 317 317 316 316 315 316 317 317 317 319 319 319 320 321 321 321 321 322 323 324 323 322 323 324 324 325 325 325 323 324 325 330 329 332 331 330 327 329 329 332 333 333 332 330 330 332 331 329 328 328 327 326 326 325 325 325 325 324 324 323 323 323 323 323 322 322 322 322 323 322 321 319 319 321 321 321 321 321 322
316 316 317 316 317 318 318 317 317 317 316 315 315 315 317 317 318 318 319 319 319 320 321 322 322 322 323 324 325 324 324 324 325 324 324 325 326 328 329 331 332 331 330 329 327 327 329 331 330 329 329 329 331 329 327 327 327 327 326 326 326 325 325 325 324 324 324 323 323 323 324 322 322 322 321 322 322 322 321 320 320 320 320 319 319 319 319
316 316 316 317 316 317 317 317 317 316 316 315 315 316 317 318 318 319 320 320 319 319 320 320 320 321 322 323 323 324 325 323 321 321 325 326 327 326 327 327 329 330 329 329 333 333 333 331 328 326 327 328 328 326 326 325 325 325 324 324 324 323 325 325 324 324 323 322 322 322 323 323 322 322 322 322 322 322 321 320 320 320 319 319 319 319 319
317 317 317 317 317 317 316 317 317 317 316 317 317 317 318 318 319 319 319 319 319 319 318 318 319 320 321 322 325 324 324 324 322 323 326 327 326 326 325 329 329 328 327 327 327 328 330 325 324 324 326 329 326 326 326 326 326 326 325 325 325 325 324 325 325 324 323 322 322 322 323 322 322 322 321 320 320 321 320 320 321 321 320 319 319 319 319
317 317 316 316 316 316 316 316 316 316 317 317 317 318 318 318 318 318 319 319 319 320 318 318 320 321 320 321 322 323 322 322 322 323 324 326 326 326 325 327 330 330 329 326 327 328 331 328 327 328 326 324 325 325 325 325 325 324 324 325 324 323 323 321 320 320 322 322 322 322 322 322 322 322 321 319 319 319 320 321 321 320 319 318 319 319 318
315 316 316 317 316 317 318 316 316 317 317 317 318 319 319 318 318 319 320 322 319 317 316 320 321 322 321 321 323 325 325 325 326 330 326 325 325 329 331 329 327 326 324 324 324 324 323 324 325 327 327 326 325 325 324 324 324 324 326 324 324 323 322 320 321 322 322 322 322 322 322 321 321 321 321 320 320 321 321 320 320 320 319 319 319 318 318
316 316 316 316 317 318 318 318 318 319 318 319 318 319 319 319 318 318 318 325 320 317 319 321 321 322 323 322 322 323 325 326 325 324 326 326 325 324 325 326 323 323 323 323 323 323 323 326 328 329 328 324 325 326 329 328 325 325 325 325 325 324 324 323 322 322 322 323 323 322 323 322 322 322 321 321 320 320 321 320 321 320 318 318 318 318 318
Wind_Speed
7 7 8 5 3 3 5 7 8 7 7 3 3 4 4 8 4 6 1 5 4 8 9 8 11 7 8 9 10 8 8 6 5 6 7 7 7 6 6 6 6 7 8 7 7 7 7 7 8 7 7 6 6 6 6 6 6 7 6 6 6 5 5 6 6 5 5 5 4 5 5 4 5 5 4 4 5 5 5 5 5 6 5 4 4 5 5
7 4 4 2 3 6 9 9 6 8 6 9 4 1 4 9 3 3 1 3 11 8 5 7 5 3 2 2 4 6 7 8 9 9 9 8 8 8 8 8 7 7 8 8 9 8 8 9 8 7 7 7 7 7 7 6 7 6 6 6 6 6 6 6 5 5 5 4 3 3 3 4 4 4 4 4 4 4 4 4 3 3 4 4 5 4 4
6 3 3 4 5 7 7 12 7 6 5 4 2 0 1 1 3 0 2 3 6 5 3 5 1 6 6 6 7 8 8 8 9 10 9 8 8 8 7 7 8 7 8 8 8 9 9 9 9 8 8 7 7 6 7 7 7 7 7 7 6 6 6 5 4 4 4 4 4 4 3 3 3 3 3 3 3 3 2 2 2 2 3 4 4 4 4
8 1 6 7 9 8 5 4 9 10 8 3 1 2 3 2 2 1 0 2 3 3 7 5 1 7 7 8 7 6 6 6 8 9 8 9 8 9 9 8 7 8 8 9 10 10 10 9 9 8 8 7 7 7 7 7 7 7 7 7 7 6 5 4 4 5 4 5 5 5 4 4 4 3 3 3 3 3 2 1 1 1 1 1 1 1 2
7 3 5 7 6 8 9 4 6 6 6 2 3 3 7 5 3 3 1 2 1 6 6 7 3 1 6 6 7 7 5 8 9 10 10 9 9 10 10 9 9 9 10 10 10 9 8 8 9 8 8 7 7 6 7 5 6 7 6 6 6 5 5 5 5 5 5 5 6 5 5 4 3 3 3 3 2 2 2 2 2 2 2 0 1 1 1
5 5 4 2 6 4 3 2 1 1 2 1 4 4 7 7 5 3 4 9 11 10 9 6 7 6 3 2 4 4 10 10 8 6 9 11 10 9 8 9 10 8 6 6 6 8 9 8 8 8 8 9 7 6 7 7 7 6 6 5 5 6 6 6 6 6 6 5 6 5 4 4 3 3 3 2 1 1 1 2 3 2 2 2 1 2 1
4 2 4 5 6 6 3 1 1 4 6 6 6 6 8 10 11 12 12 11 11 10 9 9 10 6 5 1 7 5 3 6 11 12 9 8 8 9 8 7 7 8 8 6 5 4 5 6 6 6 5 4 6 6 7 7 6 7 6 6 6 6 7 6 6 6 6 6 5 4 3 3 4 3 3 2 2 1 1 2 1 1 1 2 2 2 2
1 0 3 2 6 4 1 1 1 1 3 3 1 4 10 12 11 9 10 12 12 11 10 8 7 6 3 4 3 4 5 6 8 9 10 9 7 7 7 8 8 8 8 9 9 8 5 6 6 6 7 6 7 7 6 8 7 7 7 7 6 6 7 7 7 6 7 6 6 5 4 4 4 4 3 2 2 2 2 1 2 2 1 1 1 1 2
4 4 6 7 4 6 2 2 3 6 3 5 1 1 5 9 10 12 11 12 13 12 9 8 3 2 2 4 4 4 3 4 4 6 5 9 10 9 7 8 7 7 8 8 8 7 8 8 8 7 7 8 8 8 7 7 8 7 7 7 7 7 7 7 7 7 7 7 6 5 4 5 4 4 4 2 1 2 2 1 1 1 2 2 2 1 2
4 2 1 1 2 8 4 2 3 3 2 6 4 3 1 5 12 11 12 12 13 13 11 9 6 2 3 2 3 7 6 0 5 3 6 6 7 8 8 7 7 8 7 7 8 9 10 9 9 8 8 9 9 9 8 7 8 8 8 8 8 8 8 8 7 7 6 7 6 5 5 5 4 3 2 2 2 2 3 3 2 1 1 1 1 1 1
2 2 3 3 5 3 3 11 11 9 4 4 3 2 1 3 11 12 11 12 13 11 10 9 8 7 2 3 5 6 9 9 2 7 5 8 8 10 11 12 12 11 10 11 10 9 9 10 8 8 9 9 9 9 8 8 8 9 8 8 8 8 8 7 7 7 6 6 6 6 5 4 4 4 3 2 1 1 1 1 2 2 1 0 1 2 3
1 2 3 4 2 1 5 9 12 9 7 2 4 1 2 6 11 11 10 10 11 11 11 7 12 9 5 6 9 11 12 9 8 5 9 7 9 9 9 8 10 9 9 9 9 10 10 10 9 9 8 8 8 8 7 7 7 8 8 8 8 7 7 7 6 6 6 6 6 6 5 4 3 3 2 2 2 2 1 1 1 1 1 1 1 2 3
2 2 3 2 1 1 5 9 12 8 4 3 4 2 4 6 9 9 8 8 9 9 8 9 8 4 1 5 8 9 9 7 5 5 5 8 10 10 10 10 9 9 10 11 13 14 11 10 9 9 9 8 7 6 6 6 7 6 6 5 6 6 6 6 6 6 5 6 6 4 4 4 3 2 2 2 2 2 1 0 1 1 1 1 1 2 1
2 0 2 5 0 2 3 13 9 5 1 1 9 3 1 4 6 8 7 8 9 9 6 4 3 4 5 5 4 9 11 9 5 2 2 4 5 6 8 10 10 8 9 8 9 9 9 11 11 10 10 9 8 7 7 7 5 4 5 6 5 6 6 6 5 5 5 4 4 4 3 4 3 1 1 1 1 1 1 1 1 1 1 1 1 2 3
1 2 0 1 1 1 6 15 5 7 3 2 1 0 1 0 5 6 8 8 9 8 9 6 4 5 8 10 11 10 11 10 9 6 1 4 8 9 8 8 9 11 9 10 12 12 10 11 11 11 12 10 9 8 8 7 6 6 6 6 7 6 6 6 5 5 5 5 4 3 4 3 4 2 1 1 0 1 2 1 0 0 0 1 1 2 2
0 2 1 1 1 7 7 6 3 5 1 2 2 2 2 1 1 4 5 8 8 9 8 10 9 6 8 11 12 12 12 11 9 7 8 5 1 2 6 10 11 11 10 8 9 9 9 10 11 11 12 11 9 9 9 7 7 7 7 7 8 8 6 6 6 5 5 4 3 3 4 3 3 3 1 1 1 1 1 2 1 1 2 2 2 2 2
0 1 2 6 4 5 6 2 4 4 3 2 3 3 2 3 3 3 3 7 9 9 10 10 8 8 8 6 7 10 11 10 10 9 7 7 7 5 4 6 8 8 9 10 8 8 8 10 10 10 10 12 11 11 9 9 10 10 9 8 9 8 8 8 7 5 4 4 4 4 3 4 4 2 2 1 1 2 1 0 1 2 2 2 2 2 2
4 3 4 3 5 4 7 6 4 6 4 3 1 1 1 5 6 4 1 2 7 9 8 9 10 8 8 9 8 8 9 10 10 9 9 9 7 6 6 4 4 6 6 7 8 9 7 8 8 8 8 10 13 11 10 10 11 11 10 10 8 8 8 7 7 7 7 5 5 5 4 4 4 2 3 2 1 1 1 0 0 1 1 1 2 2 3
4 2 4 2 6 6 4 5 6 4 4 3 3 4 5 4 5 5 4 2 1 3 7 8 9 10 10 11 9 4 6 8 9 8 8 7 7 7 8 6 3 3 5 8 10 10 11 9 9 9 10 9 9 11 12 11 9 11 9 9 8 7 8 7 7 7 8 6 5 4 5 4 4 3 3 2 1 1 1 1 1 1 1 2 2 2 2
1 4 6 9 8 7 6 4 3 1 3 5 5 5 5 5 5 5 5 2 2 1 4 6 8 11 9 9 11 10 5 4 6 7 7 6 7 6 6 8 6 4 5 7 9 10 10 10 10 11 11 11 10 11 9 9 9 10 10 9 9 9 10 9 7 7 6 9 8 5 3 4 4 4 3 2 2 1 0 1 1 2 2 2 2 3 2
6 6 6 4 7 5 1 3 3 2 3 5 6 7 7 6 8 8 6 4 2 2 4 2 3 6 9 8 7 10 11 7 5 6 9 7 4 4 6 6 6 6 7 8 9 10 10 9 9 9 9 8 8 10 9 9 11 11 9 9 8 9 8 8 8 7 6 6 5 5 4 4 3 3 3 3 2 0 2 2 2 1 0 1 1 1 2
4 2 3 5 6 6 10 10 8 8 2 3 6 6 6 7 9 8 6 6 1 3 5 3 3 5 5 8 8 11 10 9 7 5 6 9 8 6 3 2 5 7 7 6 8 9 7 6 8 9 9 9 8 8 9 9 11 11 10 9 7 7 6 7 8 8 7 6 5 5 6 5 5 3 3 3 2 1 1 2 2 1 2 2 1 1 1
5 6 7 3 5 7 10 10 10 8 4 4 7 7 7 8 7 7 4 6 7 5 4 2 3 3 4 6 7 10 10 10 8 6 5 7 6 7 7 7 6 6 6 6 6 6 4 5 7 8 8 7 8 8 10 10 11 11 10 8 6 6 8 7 8 7 6 5 4 5 5 5 4 5 3 3 2 2 1 2 2 3 2 6 6 5 3
8 8 8 5 3 6 9 11 11 10 5 3 6 7 6 7 8 8 6 7 7 7 6 6 5 5 3 4 5 9 11 11 10 9 6 4 4 5 6 6 6 5 5 6 6 6 4 5 7 7 8 8 9 9 9 10 10 11 11 9 8 6 5 7 10 8 6 6 5 6 5 4 5 4 4 4 3 3 5 5 5 5 4 4 4 3 3
8 5 4 5 7 9 8 9 10 9 6 3 5 8 7 7 7 5 8 8 7 8 7 9 8 2 3 5 3 6 9 10 9 8 8 5 4 4 6 7 8 7 6 6 5 5 4 5 5 5 7 8 9 10 10 9 10 10 10 8 6 4 4 6 6 6 6 5 5 6 7 6 5 4 4 4 4 3 4 4 3 3 4 4 3 2 4
7 9 8 7 5 8 7 5 6 3 4 4 4 6 8 7 8 7 7 7 8 8 8 9 11 7 2 6 7 7 6 10 9 5 6 6 5 6 8 9 8 6 6 5 5 6 6 5 5 6 8 9 9 10 9 9 9 9 9 8 7 6 5 5 6 5 4 5 6 6 6 6 5 5 4 4 4 4 3 2 2 3 3 3 3 4 6
6 6 4 6 5 5 3 2 5 7 9 8 6 8 9 8 8 7 8 7 7 7 9 10 10 9 5 5 7 9 9 9 6 5 4 4 5 6 7 8 8 7 7 6 6 7 7 6 6 7 9 6 1 2 2 4 7 6 7 8 7 7 10 7 6 6 5 5 5 6 7 6 6 6 5 4 4 4 3 3 2 2 3 2 1 1 0
6 4 3 3 6 7 8 7 7 8 8 9 9 9 8 6 6 7 8 6 4 6 7 8 8 8 9 9 7 8 5 4 6 5 3 5 6 5 7 8 8 7 6 6 7 6 6 7 7 7 3 7 11 12 10 8 5 3 6 8 8 6 7 8 7 6 5 6 6 6 7 7 7 6 6 6 5 4 3 3 2 2 2 1 1 2 3
4 4 4 6 8 8 8 9 8 8 10 8 7 6 5 6 6 6 6 7 6 4 4 6 6 8 9 8 4 5 6 6 6 6 6 4 4 6 7 7 6 6 5 5 6 6 5 5 4 3 6 10 12 10 9 7 4 1 2 5 7 7 7 8 7 6 5 4 5 5 6 7 7 6 6 6 6 5 4 3 3 2 2 1 1 1 1
6 7 6 7 7 7 7 9 10 9 9 8 8 8 5 3 6 6 6 7 6 6 6 4 3 5 6 6 4 3 4 5 6 5 6 6 7 7 6 5 5 6 5 5 6 7 7 6 6 8 11 13 14 14 14 14 12 11 9 8 9 9 8 7 6 6 5 5 4 7 6 6 5 5 6 6 6 5 5 4 4 3 3 3 3 3 4
9 8 8 9 9 8 8 10 10 10 8 7 7 8 7 5 5 6 7 7 5 6 6 5 6 7 6 6 5 3 3 4 5 6 6 6 7 6 5 4 4 6 6 7 6 7 6 5 6 9 10 12 13 13 14 13 14 14 12 10 8 11 12 11 8 7 6 6 6 5 5 6 5 6 6 6 6 5 5 4 4 4 3 3 3 3 4
10 11 10 9 8 8 9 7 8 9 9 7 7 8 8 7 9 9 7 7 7 6 7 8 7 8 8 5 3 3 4 5 5 5 5 6 6 6 6 5 7 8 8 8 7 5 5 6 8 8 9 11 12 13 13 11 10 11 12 11 10 9 11 15 8 8 7 7 6 6 6 6 6 5 6 6 6 6 5 5 5 4 4 4 4 4 3
9 12 11 9 8 9 11 10 8 10 9 9 8 8 8 7 7 8 8 7 8 8 7 8 8 8 6 4 3 4 5 5 5 5 5 6 7 7 5 5 6 7 7 7 7 6 7 8 8 7 9 11 12 11 11 12 12 12 12 12 10 9 9 11 9 8 7 7 6 5 5 5 5 6 5 6 5 5 5 5 5 5 4 4 4 3 3
9 10 12 12 10 10 12 15 11 11 10 9 9 9 9 8 8 8 8 7 7 8 9 9 8 6 4 4 4 5 5 5 6 6 6 6 7 6 5 5 6 6 7 7 7 7 6 7 6 7 8 10 11 11 12 13 12 11 12 12 11 9 9 8 9 7 6 6 6 7 6 6 6 6 5 6 5 5 5 5 5 5 4 4 4 3 3
9 11 11 12 11 12 13 12 12 12 12 11 10 8 8 8 8 8 8 8 8 9 8 7 6 5 4 4 4 5 5 6 7 7 7 7 6 6 5 5 5 6 7 7 8 8 7 7 7 9 9 10 11 11 12 13 12 9 10 11 11 10 9 9 9 8 8 7 6 6 6 6 5 6 6 5 5 6 5 5 5 5 5 5 4 3 4
9 11 10 9 9 10 11 12 12 12 12 11 10 10 9 9 9 8 9 10 9 8 7 7 6 5 4 5 6 6 6 6 7 7 7 7 6 4 3 5 6 7 8 10 9 7 6 5 9 12 9 9 10 11 12 12 11 10 10 10 10 10 9 10 9 8 7 8 8 8 7 8 7 6 6 5 5 5 5 5 5 5 5 5 5 5 4
9 9 9 9 9 10 10 9 9 10 10 9 9 9 9 10 10 9 8 9 9 9 8 6 4 5 7 6 5 4 5 6 6 6 6 6 5 3 4 4 6 7 8 10 8 4 6 5 8 17 12 9 10 11 12 16 10 9 9 10 10 10 10 9 9 8 7 7 8 8 8 7 5 5 6 5 5 5 5 5 5 5 5 5 5 5 5
11 9 9 8 8 9 9 8 8 8 8 10 9 9 9 9 9 9 9 8 8 8 6 4 5 5 4 3 3 5 6 5 5 6 6 6 5 5 6 5 6 6 7 8 6 5 6 8 12 11 9 9 9 10 12 18 14 11 10 10 10 10 10 10 9 8 7 7 7 7 7 6 5 6 5 5 5 5 5 5 5 5 5 5 5 6 6
9 7 7 6 7 7 8 8 6 6 6 8 8 7 7 8 9 8 8 8 7 5 3 4 4 3 3 4 5 5 6 6 5 5 6 6 5 5 7 7 7 7 8 7 7 7 7 8 7 7 8 9 10 9 10 15 17 11 9 9 11 10 10 10 9 9 8 8 8 8 6 5 5 6 5 5 5 5 5 6 6 5 5 5 5 6 6
8 7 8 8 8 9 8 8 7 6 5 5 5 7 7 7 7 7 7 6 6 4 4 3 3 3 3 4 5 5 5 5 4 4 5 5 4 6 7 7 7 8 8 11 9 8 9 12 9 7 8 7 7 6 7 9 10 8 8 9 10 9 9 9 8 8 8 8 8 8 7 5 6 5 5 5 5 5 5 5 5 5 5 4 5 5 5
8 8 8 7 8 8 7 7 7 6 5 5 5 7 6 6 5 4 5 5 6 5 4 3 4 4 5 6 6 6 6 5 4 4 4 3 4 5 6 7 7 5 7 7 7 8 10 8 7 7 6 6 6 7 7 12 9 7 8 8 9 9 9 9 8 8 8 8 8 7 7 6 5 5 5 5 6 5 5 5 5 5 5 5 5 5 5
9 9 9 9 10 10 8 7 6 6 6 5 5 6 6 4 2 3 4 4 5 5 4 5 6 6 6 6 5 5 5 4 3 3 3 4 5 4 5 7 6 6 8 10 10 9 7 7 7 7 7 7 8 15 15 10 8 7 7 8 8 9 9 9 8 8 7 7 7 7 6 6 6 6 5 5 5 5 5 5 5 5 5 5 5 5 6
10 11 9 10 10 10 7 6 6 6 6 6 5 6 5 4 3 2 3 3 3 3 4 4 4 5 4 4 3 3 3 2 2 3 4 5 6 6 6 7 6 6 11 8 6 5 6 6 6 5 9 10 9 14 17 9 7 6 6 6 7 8 9 9 8 7 7 7 7 7 7 6 6 6 6 6 6 6 6 6 6 6 6 5 6 6 6
8 9 10 11 11 9 7 6 6 6 6 6 4 4 4 1 1 1 2 3 4 4 3 4 4 4 4 3 2 2 2 2 3 3 3 5 5 4 5 6 5 6 9 5 5 5 5 6 6 10 16 16 15 16 10 7 9 7 7 6 6 7 8 8 7 7 7 7 7 7 7 7 6 6 6 6 6 6 6 6 6 5 5 5 5 5 5
8 9 9 10 10 8 7 6 6 7 6 5 5 5 3 3 3 2 2 3 4 4 3 3 3 3 2 2 2 3 2 3 3 3 3 4 4 5 3 5 6 4 6 6 4 4 4 4 7 14 13 14 13 14 6 6 7 8 7 7 6 6 7 7 7 7 7 7 7 7 6 7 7 7 6 7 7 7 7 7 7 7 6 6 6 6 6
10 10 9 9 11 9 7 7 6 5 4 4 4 3 2 3 4 3 3 4 4 4 4 4 3 3 2 2 1 1 1 2 3 3 3 3 3 5 6 7 4 3 6 6 1 2 2 2 5 9 12 11 11 9 5 5 4 3 5 6 6 7 7 6 6 6 6 6 6 6 6 6 6 6 6 6 7 7 7 8 7 6 5 6 6 6 6
8 9 10 11 11 9 8 7 5 3 3 2 5 6 6 5 5 4 4 5 5 4 4 3 2 2 2 1 1 3 4 5 4 3 2 2 3 5 5 7 6 6 5 3 2 1 1 5 10 12 12 14 13 5 5 5 4 2 2 1 4 6 6 6 6 6 6 5 5 6 6 6 6 6 6 6 6 6 6 6 6 6 6 6 6 6 6
10 12 12 12 10 10 10 7 4 5 5 4 4 4 5 5 4 4 5 6 6 5 4 3 3 3 2 1 1 1 0 1 4 4 3 4 3 3 3 4 3 8 7 6 6 0 5 7 7 10 14 14 9 7 6 5 5 6 7 6 7 4 2 3 4 5 6 5 5 5 5 5 6 5 6 6 6 6 6 7 6 6 5 6 6 6 7
4 7 10 10 9 10 8 7 6 6 6 5 4 4 5 5 4 5 6 6 7 7 7 6 4 4 3 3 3 2 1 0 2 1 4 4 4 4 3 4 4 3 4 5 5 5 6 6 6 11 12 10 8 7 7 7 6 7 7 6 5 2 3 3 2 3 1 2 2 2 1 2 2 3 4 5 5 5 6 6 6 6 6 7 6 6 6
6 5 6 8 10 10 9 7 6 6 5 4 4 4 4 5 6 7 5 5 5 7 7 5 5 5 5 5 5 5 3 3 1 2 3 3 3 2 3 3 4 7 7 4 4 4 8 10 8 7 6 5 5 5 7 6 6 5 5 5 5 5 6 5 4 5 5 5 5 4 4 4 3 3 3 3 4 3 3 3 3 4 7 6 6 5 5
8 8 9 10 11 10 8 5 6 6 5 5 5 5 5 5 4 4 4 6 7 6 7 4 6 6 6 6 6 6 7 6 6 5 5 6 5 5 6 5 6 5 5 5 4 4 4 4 4 6 6 5 5 4 4 6 7 6 6 6 6 6 6 8 7 6 5 6 6 6 6 5 5 4 4 4 4 5 5 5 6 6 6 5 5 5 5
8 6 8 10 8 5 6 5 4 3 3 2 2 4 4 3 3 3 4 7 5 5 4 5 7 7 6 6 6 6 6 7 7 7 7 6 6 5 5 7 5 5 5 5 5 4 3 3 4 6 6 4 4 5 6 6 6 6 6 6 6 5 4 5 5 6 7 6 6 5 4 3 3 3 3 4 4 5 5 5 5 5 4 5 5 5 6
Wind_Direction
230 237 247 241 257 222 261 271 268 273 269 291 178 220 181 142 152 200 251 175 203 256 228 223 226 201 195 195 184 182 168 147 130 131 142 151 154 151 159 167 162 156 161 166 166 167 163 155 159 160 158 159 156 159 159 159 163 171 165 165 164 166 171 187 194 190 187 189 191 190 188 163 186 195 194 192 196 202 213 215 218 225 223 218 225 230 220
289 258 234 232 287 316 323 315 292 260 260 255 256 241 177 180 191 205 139 174 235 256 286 248 234 121 134 146 119 117 136 160 159 154 155 162 162 166 173 173 174 172 168 168 169 164 163 165 164 164 164 165 167 165 168 164 166 167 156 164 166 168 178 187 177 173 172 179 171 160 184 194 193 181 184 181 173 180 186 193 195 205 204 209 224 224 229
299 294 291 317 339 344 329 307 328 306 266 258 256 29 323 337 298 105 145 197 273 267 264 292 117 116 110 112 143 171 170 162 165 161 161 163 170 172 173 171 172 172 172 172 167 168 170 171 170 169 170 169 166 166 165 164 166 164 160 160 170 172 184 177 168 158 160 160 152 161 161 130 124 134 137 123 124 139 155 168 177 197 198 208 220 230 231
301 357 7 337 338 333 315 322 345 345 357 286 323 60 337 322 274 242 171 348 281 279 344 340 17 127 140 162 171 165 173 180 164 165 165 166 172 175 177 176 172 171 174 175 176 176 176 174 170 169 169 167 165 171 164 164 163 157 158 161 167 176 173 155 153 155 151 144 140 134 133 132 129 117 110 108 102 100 82 41 23 56 105 177 212 261 246
261 269 9 333 341 349 342 350 324 303 284 253 319 47 36 37 309 313 183 235 250 299 329 323 309 196 167 172 168 176 179 176 172 172 174 178 177 181 176 175 180 181 180 182 180 176 173 173 173 176 163 158 172 164 158 151 141 149 156 162 158 157 157 155 155 151 150 144 137 140 145 144 138 128 118 93 79 64 54 28 64 68 27 10 324 305 345
257 310 341 356 23 348 250 226 218 215 256 12 48 15 15 352 27 276 253 267 292 304 309 288 263 231 226 199 226 207 171 165 181 183 180 180 179 178 180 179 179 180 172 176 184 183 179 175 172 163 168 167 167 156 146 141 144 145 144 151 149 151 154 158 155 150 146 140 142 142 137 124 118 111 105 112 52 25 42 42 57 44 21 36 27 42 44
257 309 11 342 275 244 238 191 9 55 73 60 84 74 31 7 360 355 341 328 318 296 279 268 262 242 269 155 146 155 165 166 165 175 183 185 178 175 177 176 177 173 174 171 167 168 173 164 150 146 160 152 131 125 138 138 143 142 146 137 139 149 150 148 142 141 137 139 139 141 139 143 135 137 149 138 143 155 119 109 92 79 45 19 1 17 28
359 40 126 181 226 222 296 262 74 45 73 68 56 1 21 17 9 349 334 323 311 304 297 286 247 233 199 98 80 132 148 166 174 168 180 180 164 172 180 180 178 170 170 170 174 177 154 141 149 162 160 150 145 147 151 144 146 147 144 142 141 143 141 148 150 153 150 147 146 151 154 154 152 157 159 156 162 161 140 132 126 119 97 76 26 2 26
202 204 183 223 321 323 10 39 29 19 356 348 36 74 1 12 4 2 342 334 337 333 322 327 346 138 114 83 39 8 115 152 180 184 187 165 168 163 166 167 172 167 164 166 166 151 154 158 158 168 158 156 149 143 146 148 143 146 144 149 156 159 153 156 157 159 156 150 151 156 154 152 160 166 160 152 164 180 105 120 114 121 143 143 140 147 125
141 128 237 344 191 217 243 154 13 342 298 276 215 128 294 352 358 358 354 352 348 348 339 349 345 22 89 140 19 350 350 93 137 148 147 154 150 156 152 147 149 154 156 147 150 158 160 166 169 158 160 155 151 150 151 150 147 151 155 162 165 162 164 166 162 159 155 151 151 151 158 169 172 182 174 172 187 194 159 162 139 169 162 132 57 68 93
117 191 184 207 198 228 51 331 322 324 304 273 167 91 357 339 356 351 352 350 352 359 356 353 29 56 43 341 302 343 346 324 254 145 166 157 160 162 166 164 164 166 167 164 158 153 159 164 170 161 157 153 151 158 158 161 157 156 164 162 166 169 171 165 160 156 152 149 152 158 168 179 174 173 189 181 173 167 173 150 157 179 150 3 9 32 38
229 145 200 244 216 70 353 320 318 318 302 219 121 153 253 339 346 348 347 343 344 344 356 5 45 56 63 316 314 314 317 294 259 189 162 164 162 170 171 173 171 165 149 136 142 157 170 177 160 158 154 154 159 159 169 160 161 166 169 172 171 161 153 153 152 147 148 149 153 161 162 166 176 183 177 181 186 150 123 114 139 88 95 58 34 26 16
285 217 260 329 334 18 333 327 312 304 256 104 61 223 277 320 339 344 342 326 329 330 5 19 45 7 161 248 276 305 323 322 239 253 188 168 166 165 170 170 155 156 165 165 167 172 177 164 159 158 157 156 164 162 157 166 179 178 162 144 144 147 144 143 145 146 148 153 153 150 152 151 161 165 190 184 161 154 123 81 75 63 80 57 23 333 345
336 262 168 223 199 236 272 324 308 278 173 80 183 197 272 295 332 340 341 333 337 331 340 3 19 319 306 288 319 6 15 2 314 226 216 162 158 158 158 156 161 164 164 167 165 166 163 161 161 161 159 161 161 158 158 182 180 123 131 138 131 131 141 142 136 133 139 127 127 140 142 139 128 114 67 130 160 138 104 108 98 90 52 23 306 309 308
35 34 334 351 246 292 4 329 330 6 81 201 206 70 3 331 328 336 344 355 334 342 324 327 328 334 358 2 0 5 18 20 360 340 168 173 165 157 153 166 178 164 166 173 177 173 166 165 164 165 162 161 161 159 172 175 135 140 138 138 139 141 138 136 134 135 140 142 134 139 140 135 112 103 46 60 108 184 155 118 98 328 89 233 281 264 244
188 337 41 108 297 280 317 8 22 302 139 237 283 64 352 328 305 323 335 345 345 332 316 322 344 350 8 4 5 6 12 18 18 11 356 350 348 212 191 178 176 175 177 176 172 168 165 167 167 168 165 160 160 162 174 143 139 141 146 150 151 150 148 143 139 144 144 132 124 129 136 125 113 121 102 60 54 4 284 162 170 244 273 264 261 287 312
120 245 239 265 268 267 292 312 268 252 264 320 300 18 17 329 298 249 357 341 338 339 328 321 337 356 10 10 10 8 359 6 16 14 2 348 330 307 252 211 184 179 177 173 167 164 171 169 169 172 172 160 163 169 168 152 156 159 159 158 158 157 153 151 147 142 126 123 129 122 121 127 125 129 108 99 86 3 19 155 150 231 255 255 280 297 302
261 261 252 299 304 299 311 302 279 276 280 269 334 231 323 226 250 248 66 347 323 330 340 338 340 346 339 0 15 13 5 7 2 6 13 11 358 331 315 301 227 196 164 157 160 167 170 173 169 173 178 166 169 176 160 166 164 163 159 160 160 156 151 148 145 138 121 121 113 111 108 95 108 111 124 113 111 30 19 64 64 233 278 291 308 312 296
25 303 276 260 291 309 291 289 298 287 269 248 221 211 206 242 250 256 238 235 300 319 337 337 325 324 341 349 349 6 11 10 4 359 359 11 10 341 316 300 277 218 176 169 176 177 179 181 174 175 178 189 177 155 166 167 161 161 159 159 155 150 151 147 147 147 139 135 127 113 99 103 95 99 83 67 93 96 87 349 338 282 278 265 264 250 264
222 239 289 299 297 264 254 240 297 279 239 249 252 254 259 248 250 245 246 244 323 18 331 316 324 323 335 352 332 334 352 28 1 350 342 346 4 4 327 304 279 234 206 197 189 184 189 187 186 183 182 185 173 166 162 158 157 158 161 163 159 163 158 156 155 153 146 147 137 112 121 120 111 99 75 94 94 96 135 163 219 262 270 270 296 303 283
281 292 293 304 319 336 319 299 279 232 219 249 258 242 246 261 271 259 239 181 190 253 275 263 302 321 321 327 324 324 326 350 12 349 331 329 342 356 354 323 299 248 217 209 208 200 201 188 184 186 192 185 164 165 162 157 160 163 165 165 156 155 156 152 155 156 149 143 143 137 120 87 74 98 129 121 116 133 186 168 200 192 260 273 318 304 307
309 243 282 353 356 308 312 310 303 320 308 254 266 278 272 262 260 271 302 296 218 195 217 247 288 295 301 320 332 326 322 321 326 346 334 317 327 340 11 339 303 304 285 253 223 214 209 189 192 191 188 179 172 166 161 163 164 165 165 159 150 165 163 157 154 154 148 136 143 135 128 123 124 111 82 108 126 115 104 45 62 207 196 208 204 334 8
262 264 271 248 229 259 255 268 290 299 300 291 299 295 290 291 282 279 270 283 302 307 288 250 237 259 292 300 324 320 316 312 314 314 311 305 321 332 339 345 314 288 285 286 281 257 227 189 199 198 193 179 176 174 172 169 170 166 161 158 156 170 171 163 160 150 145 139 142 129 121 128 127 118 107 77 113 106 80 12 34 357 298 268 288 281 282
264 271 274 267 215 260 286 295 298 294 304 290 281 281 279 281 291 295 272 248 259 277 286 283 256 235 232 283 313 302 301 300 306 310 309 322 325 324 316 290 281 278 272 274 273 267 251 222 210 201 192 185 185 179 178 174 174 164 163 160 167 177 183 163 161 151 138 141 139 130 123 125 124 125 121 110 70 59 62 48 30 34 18 349 318 301 264
258 260 265 272 264 273 272 275 281 285 287 268 286 296 293 294 292 283 272 268 248 249 266 276 274 229 266 262 230 254 279 291 292 299 310 328 341 310 281 283 281 278 266 239 229 236 241 220 223 220 207 198 188 184 182 176 174 165 159 154 147 154 180 163 150 137 144 150 154 143 141 139 135 129 134 141 124 85 17 39 66 60 43 39 54 70 81
256 271 275 278 279 268 279 311 299 296 292 310 310 297 300 297 296 300 281 251 251 242 235 249 274 278 180 266 279 266 254 263 278 310 321 318 332 332 307 284 270 266 271 261 236 228 222 209 205 210 218 212 199 190 176 170 172 163 152 144 144 148 165 169 137 137 157 172 164 158 149 143 140 144 147 139 128 122 109 55 45 58 87 87 62 61 56
253 250 273 314 314 296 264 250 275 291 303 304 293 287 288 294 300 291 278 269 251 235 235 240 237 253 257 223 226 238 246 271 301 307 284 297 294 272 272 272 267 258 253 255 245 234 223 201 200 212 226 224 208 19 60 139 139 136 131 125 118 159 168 160 159 154 171 186 181 158 152 150 151 152 148 144 144 140 146 139 133 125 105 50 73 4 113
271 264 191 250 267 281 290 279 266 280 286 289 289 289 294 304 312 325 317 298 269 243 250 250 249 250 255 257 243 256 246 239 251 270 272 260 262 268 265 263 265 265 256 253 255 243 226 213 209 217 216 77 78 61 44 25 14 94 132 134 142 150 167 169 163 164 174 190 192 176 159 155 154 153 148 148 150 150 148 160 161 158 154 194 221 285 248
271 259 250 237 253 262 271 285 293 283 277 272 272 277 292 307 311 316 300 291 298 305 261 245 233 238 245 257 249 253 280 300 301 290 283 284 280 269 271 273 274 269 268 267 268 270 258 236 207 134 85 110 110 125 136 142 138 156 241 178 155 161 172 180 173 160 171 187 212 183 154 149 152 148 147 144 147 148 155 164 167 177 173 145 217 217 198
292 295 291 281 271 266 277 280 277 280 278 280 285 285 272 268 296 289 287 294 311 305 294 305 297 258 235 250 254 231 254 263 269 280 287 281 277 277 281 294 308 298 292 279 259 252 244 222 171 142 140 145 155 162 163 164 165 162 183 203 187 175 182 180 158 153 153 178 195 170 152 151 149 151 143 145 148 154 156 165 174 172 178 197 189 179 187
292 290 285 285 285 278 266 272 277 276 277 277 271 278 285 274 263 273 281 286 293 289 293 291 281 280 271 252 250 244 247 257 258 255 253 257 262 267 267 255 263 275 268 256 248 239 240 221 182 169 169 163 165 171 174 177 172 168 169 180 194 182 175 164 162 158 155 162 179 177 163 154 157 156 151 149 149 148 154 163 174 174 177 183 195 180 212
294 294 291 288 283 283 281 274 274 275 273 272 278 274 272 274 276 278 282 284 278 277 288 290 277 265 261 262 281 286 271 266 265 261 259 260 264 263 253 240 242 251 256 257 253 235 213 195 196 186 170 173 177 182 180 178 176 170 166 170 178 180 176 170 167 162 153 168 173 178 171 156 160 162 151 154 158 158 155 159 170 175 176 184 199 204 209
287 295 296 296 298 289 285 280 275 278 277 274 263 261 265 261 259 264 265 267 278 280 270 267 267 262 257 265 273 270 269 269 273 277 274 269 267 266 261 246 240 247 253 256 254 234 207 207 206 181 180 179 185 185 180 176 178 179 173 168 172 174 168 175 175 161 162 159 167 179 180 170 160 162 163 159 155 156 157 165 168 176 181 189 194 212 203
275 276 279 282 279 285 290 292 288 281 277 266 263 265 264 262 259 261 263 263 262 266 267 264 261 258 255 246 250 260 265 284 280 273 264 265 269 274 269 258 257 255 259 261 258 245 226 218 200 188 190 187 185 184 183 181 184 188 173 164 161 163 166 171 172 169 159 160 167 181 181 171 167 167 167 162 158 157 166 168 171 175 179 187 192 197 211
269 272 272 273 275 272 276 280 283 283 283 283 277 264 255 258 257 257 258 257 256 255 257 260 254 250 244 243 245 257 250 247 254 260 267 268 274 274 284 284 278 272 266 260 250 250 232 211 199 197 193 190 188 187 186 186 187 184 178 164 160 160 163 164 172 178 175 168 166 168 179 184 178 173 169 164 164 171 173 173 172 173 178 188 192 180 205
292 290 288 282 276 276 277 276 276 276 277 274 271 270 268 262 261 261 261 260 258 260 261 258 255 252 252 245 250 253 255 251 252 255 265 268 271 287 295 289 281 277 273 274 254 248 247 223 207 198 194 194 192 193 188 190 185 181 173 163 159 157 162 167 173 181 178 166 169 184 186 189 178 172 169 171 170 175 178 178 176 179 180 188 181 174 191
291 282 281 282 280 281 279 273 267 267 264 264 265 265 265 267 264 262 262 263 261 258 254 251 250 248 249 251 252 256 252 253 252 254 260 269 278 281 282 278 271 277 277 278 281 251 248 228 228 206 197 195 198 195 195 186 178 175 165 160 155 159 163 167 173 175 175 170 178 186 189 187 174 174 177 169 177 182 184 188 186 182 186 186 182 182 183
297 293 291 295 293 291 281 269 264 260 259 260 260 260 264 269 268 264 262 260 261 260 259 241 236 249 271 297 275 259 262 257 253 253 259 266 266 276 276 260 260 264 270 268 278 249 236 238 237 217 200 200 198 198 193 184 170 167 167 162 160 163 166 166 168 170 169 170 179 187 190 183 174 174 179 180 184 184 190 192 189 186 186 188 189 186 189
300 300 299 300 300 295 293 287 274 258 248 257 267 272 270 269 271 272 269 263 263 266 260 253 241 247 262 280 279 274 267 260 256 252 255 256 255 248 265 260 255 251 257 270 266 255 251 248 221 213 203 202 201 201 192 180 163 164 174 167 160 162 164 163 166 167 168 171 175 187 189 182 177 175 177 187 186 190 193 194 190 189 188 191 189 198 198
310 317 312 317 323 315 310 301 291 279 268 252 258 266 273 284 284 278 273 279 280 256 235 224 220 235 246 246 255 260 265 257 254 250 251 255 262 274 284 281 268 260 256 260 257 250 245 239 227 206 204 197 180 169 191 177 153 162 182 171 163 162 161 158 158 164 169 169 179 182 182 180 179 179 182 183 184 191 191 195 194 193 198 190 196 200 205
309 314 313 324 325 315 300 295 292 293 293 283 268 267 266 253 266 282 281 283 288 287 268 236 231 240 240 240 242 249 255 261 254 244 245 251 273 279 289 291 291 278 268 260 243 244 242 235 218 205 184 152 141 138 131 173 173 192 188 174 163 162 155 155 160 168 167 174 178 178 180 174 174 183 182 184 190 192 192 195 192 194 195 197 197 196 204
328 323 317 333 338 307 292 287 290 303 301 295 284 277 279 285 268 271 280 269 256 257 235 234 238 242 235 234 237 247 264 270 260 253 237 239 256 275 285 281 283 291 288 281 261 248 240 234 221 197 171 154 159 168 173 180 168 186 189 172 168 162 151 152 160 167 171 173 176 176 175 173 177 183 182 186 187 192 196 195 196 198 202 204 206 202 202
332 331 333 336 305 289 290 293 294 282 283 284 277 275 285 302 316 309 293 291 274 273 276 271 260 270 270 257 247 259 288 304 288 272 267 255 245 236 249 270 291 293 294 280 247 239 226 223 202 183 171 165 174 176 183 175 160 175 188 173 173 159 149 153 159 162 167 171 176 176 174 176 178 180 180 184 192 193 194 194 199 200 200 203 212 210 213
325 328 340 325 304 294 300 304 301 300 292 287 283 282 280 289 258 315 311 300 300 295 288 292 289 282 260 244 238 286 295 288 274 267 257 297 314 279 243 249 255 277 298 268 234 228 227 204 186 182 183 177 174 175 177 167 157 160 169 173 179 158 149 149 155 163 169 175 176 177 179 181 181 183 181 183 187 190 192 199 204 202 202 203 208 214 217
330 336 323 301 303 308 309 303 292 281 281 286 300 293 314 353 359 354 327 330 307 303 304 301 291 294 289 265 237 262 260 257 250 262 296 301 318 303 297 315 306 297 321 303 236 220 211 226 203 192 188 181 174 178 158 135 162 178 171 166 169 160 146 152 161 171 177 179 181 182 181 185 189 187 187 190 188 186 190 193 201 203 202 206 204 210 215
331 322 305 320 328 322 311 299 287 283 295 298 288 285 344 334 321 331 352 354 338 324 315 305 292 282 274 265 236 243 251 311 302 278 250 251 255 285 303 306 283 300 336 341 239 269 311 234 207 189 174 149 153 170 147 158 195 196 163 160 165 161 153 162 167 172 177 180 183 182 186 189 187 193 192 188 189 188 191 196 201 202 204 209 210 211 214
319 315 332 334 321 315 313 302 291 286 280 341 9 351 330 334 322 326 0 14 3 332 320 310 293 290 261 256 5 31 17 356 347 13 334 306 283 295 299 318 346 355 359 350 248 251 175 129 117 123 129 144 156 134 118 123 117 74 28 264 182 159 160 160 166 169 170 181 186 189 187 186 191 195 194 196 187 190 183 187 198 204 200 206 214 215 217
330 335 329 318 310 316 320 312 335 359 2 350 309 301 315 317 322 338 27 33 16 347 330 342 357 347 360 48 74 99 172 94 10 330 3 347 327 303 321 308 344 7 5 22 12 358 148 130 122 114 119 119 116 114 115 109 110 100 86 51 3 353 77 122 146 165 173 175 175 177 178 183 188 191 192 196 197 193 185 191 199 197 192 200 209 209 209
312 299 298 292 309 327 323 321 337 334 328 320 331 340 341 330 330 360 18 38 26 8 346 333 359 5 6 10 42 55 54 128 111 325 322 337 334 340 322 342 35 31 3 38 51 37 48 54 106 129 132 131 132 126 123 129 129 119 114 125 137 131 81 63 23 343 30 121 116 117 130 218 219 221 220 218 217 208 196 197 200 195 199 201 211 211 213
315 296 295 327 326 314 309 314 320 316 307 316 335 359 348 359 18 3 360 21 26 21 331 302 31 21 20 23 28 34 34 34 7 321 323 353 360 351 340 352 13 47 58 60 48 55 84 78 65 61 59 55 77 106 111 109 108 124 144 157 163 172 162 165 180 175 172 164 154 156 163 172 170 185 198 232 249 252 250 262 262 236 229 224 219 220 220
325 325 339 322 299 289 281 273 279 301 311 320 337 351 8 26 9 331 345 24 30 16 297 335 38 25 22 21 27 30 35 41 40 42 43 37 22 35 47 41 30 33 48 58 52 26 14 38 73 75 74 80 84 89 104 130 134 148 141 142 149 150 154 167 166 165 154 152 155 167 172 174 172 178 194 206 217 228 229 216 220 220 215 215 219 226 228
278 242 235 244 253 293 314 313 325 326 310 322 348 9 23 9 334 350 353 31 34 259 247 61 42 20 24 30 35 31 30 40 43 41 43 47 47 47 42 47 49 42 41 50 50 49 27 30 62 75 67 57 83 113 117 116 123 134 138 143 139 136 144 149 158 154 157 162 160 163 164 152 150 173 214 227 234 237 239 236 243 250 239 224 217 218 222